GFSSGP_sfc_30mbdewp_000.txt.gz
Dewpoint
61 56 56 58 52 47 42 42 46 47 46 46 47 46 47 51 53 53 57 55 56 68 70 72 73 73 72 71 71 71 71 71 71 72 71 71 72 71 71 71 71 70 71 71 71 71 71 70 71
62 56 57 54 47 39 40 41 41 43 46 46 45 43 42 42 49 48 50 51 56 60 71 73 73 73 73 72 72 71 72 71 72 72 71 72 71 71 71 70 70 70 70 70 70 70 71 70 70
56 49 49 47 41 38 38 39 38 41 42 43 38 37 38 39 42 44 46 48 52 61 70 74 74 73 72 72 72 72 72 72 72 72 71 70 70 70 70 70 71 71 70 70 71 71 71 70 70
48 53 48 40 37 37 38 35 35 37 39 36 36 35 38 39 41 42 44 44 49 61 69 74 74 73 73 72 72 72 72 71 71 71 71 70 70 70 69 70 71 71 71 71 71 71 70 71 69
48 48 41 32 35 35 35 32 31 33 34 32 32 32 35 38 40 40 42 43 49 55 68 73 73 72 72 72 71 70 69 67 68 68 69 70 67 66 67 70 68 70 70 71 71 70 70 69 70
47 44 34 29 33 33 34 31 27 28 31 30 29 32 35 39 38 38 41 45 51 53 67 70 72 71 71 69 67 66 65 66 65 64 65 68 67 67 67 67 65 67 68 69 69 70 69 69 70
46 42 30 31 33 31 29 28 22 24 27 28 28 31 35 37 39 36 40 46 48 48 51 68 68 69 67 66 66 65 61 60 62 57 56 59 67 60 58 65 62 64 65 65 67 68 68 69 69
50 43 35 32 34 33 28 25 22 26 28 29 29 28 32 37 37 36 38 39 41 44 46 49 54 53 58 61 57 54 61 54 49 52 50 52 49 55 53 60 59 63 65 63 66 65 67 69 70
44 41 30 29 31 34 28 26 23 28 28 32 35 37 37 37 37 35 35 38 38 40 42 43 44 44 42 41 45 41 40 42 42 43 46 44 46 49 49 52 58 59 63 59 64 64 67 69 71
40 31 32 37 34 34 28 26 24 26 31 34 36 35 34 35 35 33 32 34 35 35 35 37 37 39 39 34 34 36 36 38 39 40 40 43 45 46 48 47 52 53 55 54 55 61 65 67 68
33 34 37 34 33 31 27 24 24 23 29 34 35 32 32 31 31 30 31 34 35 35 33 32 32 33 34 35 36 37 36 37 38 39 38 42 42 41 40 42 43 49 49 49 50 51 56 59 65
29 32 32 33 30 28 26 26 23 24 32 33 34 33 32 30 29 30 31 32 34 34 31 28 28 29 32 36 37 37 35 35 36 37 37 40 40 39 39 38 40 41 43 43 44 46 46 49 64
26 29 29 32 28 27 27 26 24 29 38 37 34 32 31 30 30 30 31 31 32 31 28 26 25 27 30 34 35 36 36 35 35 37 36 38 38 39 40 39 39 39 40 40 40 39 40 43 47
25 27 28 29 26 25 24 26 30 31 38 37 33 32 31 30 30 30 30 30 29 28 25 25 24 24 28 31 34 35 35 34 35 36 35 36 38 39 39 39 38 39 39 39 40 41 41 42 45
25 24 24 25 25 25 26 28 30 32 35 32 32 32 31 31 31 30 30 30 28 26 24 25 25 25 27 30 33 34 32 32 32 32 33 34 37 39 38 38 38 38 38 40 41 42 42 44 45
21 21 22 23 24 26 26 20 29 31 33 30 31 31 32 32 31 30 30 29 28 25 24 26 26 25 26 27 29 29 30 30 30 30 33 33 36 36 37 39 39 38 38 39 40 40 42 43 43
21 16 19 23 24 25 25 23 26 33 32 31 30 30 32 32 31 29 29 28 27 25 23 25 26 24 25 26 26 27 29 29 30 30 32 30 35 35 36 39 39 37 38 39 39 39 40 40 40
17 18 17 17 25 24 25 24 30 33 32 31 31 31 31 32 31 29 27 26 25 24 23 23 25 24 24 27 27 28 29 29 29 30 31 29 33 33 36 38 37 37 37 37 37 38 39 41 42
19 19 16 16 24 24 22 23 25 31 33 31 31 31 31 31 33 30 27 23 23 24 23 23 24 24 25 27 27 27 27 27 29 30 29 29 31 32 33 35 36 35 36 36 37 38 38 40 42
20 20 16 16 25 24 24 24 24 24 31 32 31 31 31 31 32 32 28 23 22 22 22 22 23 25 26 28 28 28 27 28 29 31 30 30 30 30 31 30 32 33 34 35 36 36 37 38 40
22 19 16 15 22 23 23 23 22 22 22 30 33 32 31 31 31 31 29 25 23 22 22 23 23 24 27 26 28 29 29 30 29 28 29 30 28 29 29 30 30 30 31 32 34 34 35 35 37
17 21 17 19 18 16 22 17 18 18 22 21 26 32 32 31 32 31 29 26 23 23 23 24 24 23 25 26 27 28 28 28 28 28 29 28 28 27 28 28 29 30 31 30 31 32 33 34 35
19 24 22 22 21 20 20 19 19 19 19 21 22 26 32 32 32 33 31 28 23 23 25 24 24 23 24 24 27 28 28 29 29 28 27 27 27 28 28 28 29 30 31 31 32 33 33 33 33
26 24 24 24 23 20 20 19 17 19 19 20 22 24 29 32 32 33 32 31 24 24 27 27 26 24 25 26 27 27 27 27 27 27 27 27 28 28 29 29 29 30 30 32 32 32 34 34 36
25 21 17 23 24 20 18 15 17 18 19 16 21 26 29 31 32 33 31 31 27 25 28 28 28 28 27 26 25 23 25 26 26 25 26 26 27 28 29 30 30 29 31 31 32 33 33 34 36
25 21 16 10 15 18 19 16 16 17 20 21 25 26 30 31 32 32 30 31 29 28 29 28 28 29 27 25 23 23 22 26 26 25 26 26 27 27 30 29 31 29 29 30 31 32 33 33 36
24 23 23 20 19 17 16 17 17 16 19 22 23 25 30 31 32 31 30 31 31 29 29 29 29 28 26 25 22 19 18 20 24 25 25 26 28 29 29 29 29 30 31 30 31 32 31 36 41
22 26 22 21 13 10 12 11 15 15 18 19 21 24 28 31 31 30 30 30 31 30 30 30 29 27 26 25 21 18 19 20 22 24 24 26 27 29 29 29 30 29 30 30 30 31 33 38 38
23 24 24 22 17 10 9 12 14 11 11 18 18 21 27 31 31 30 29 29 30 29 29 27 26 24 22 21 19 19 20 21 21 21 23 24 27 27 27 27 28 29 29 29 29 31 34 34 36
24 22 23 17 15 18 17 16 19 19 12 12 16 20 25 31 32 30 28 27 28 28 26 24 22 22 22 21 18 19 19 20 21 22 22 24 24 25 26 27 27 27 29 29 29 31 33 35 36

GFSSGP_sfc_30mbdewp_003.txt.gz
Dewpoint
65 62 59 58 48 45 43 43 48 47 46 47 50 52 53 55 54 51 57 68 69 71 73 74 74 73 72 71 71 71 71 72 72 72 72 71 72 71 71 71 71 70 70 70 71 70 70 70 71
66 61 57 52 45 40 41 42 42 45 47 45 46 46 46 46 50 49 50 62 70 72 74 74 73 74 73 71 72 72 72 72 72 72 71 71 71 70 70 71 71 71 71 70 70 70 71 70 71
58 59 47 45 42 39 39 40 39 43 44 41 38 40 41 42 43 45 47 61 69 72 74 74 74 74 73 72 73 73 72 72 72 71 71 69 70 69 70 70 71 72 72 72 71 71 70 70 70
48 53 50 40 36 38 38 38 39 41 41 38 39 39 39 41 42 44 45 60 68 72 74 74 73 72 72 73 72 69 69 69 70 71 69 68 66 67 68 65 69 71 72 72 72 71 71 70 69
50 49 41 35 34 35 34 35 36 37 36 34 35 36 36 39 41 44 45 52 67 71 73 73 73 73 73 71 69 67 66 67 67 67 67 68 67 65 67 64 65 66 66 68 70 71 70 70 70
46 47 35 31 34 34 32 31 29 29 31 33 35 35 37 39 38 43 48 51 65 69 72 73 73 72 70 67 65 65 63 64 64 59 60 67 67 64 65 66 65 65 64 65 65 67 69 70 70
47 45 35 32 32 31 31 31 25 27 29 29 34 33 36 38 39 44 48 47 46 64 70 71 68 67 68 66 64 61 60 56 56 55 55 56 56 56 59 61 64 66 67 64 64 63 65 69 70
48 46 37 34 31 31 29 26 23 29 28 29 32 32 34 37 38 41 43 44 45 45 59 67 67 64 59 58 56 54 55 53 49 49 52 52 53 52 51 55 58 61 61 61 65 63 67 69 69
46 37 31 33 34 31 27 24 24 29 30 37 37 35 36 37 37 38 39 40 40 41 42 42 42 41 47 45 45 42 47 47 47 45 48 47 45 47 45 50 52 53 56 54 58 60 67 68 68
41 32 31 36 34 28 26 24 23 29 32 36 34 35 36 36 36 35 38 38 37 36 36 34 35 36 36 38 38 37 37 40 39 39 42 42 41 44 44 45 45 48 48 49 49 50 51 60 64
35 36 37 32 34 31 27 26 24 27 30 36 33 33 34 35 35 34 36 36 36 35 32 32 32 35 36 39 37 36 36 37 37 37 40 39 40 41 40 41 42 44 46 45 44 44 44 46 52
30 34 32 32 29 30 26 26 23 27 32 35 34 33 32 31 31 33 35 35 34 31 29 30 31 33 35 37 37 35 36 34 36 36 37 37 39 40 40 40 41 42 43 42 43 43 43 43 45
28 29 31 31 28 27 28 25 24 30 35 36 34 33 32 31 31 33 34 35 33 30 27 26 29 31 34 34 35 35 33 34 35 34 36 36 38 39 40 40 40 41 41 41 41 42 43 43 45
28 29 31 31 28 27 26 27 27 33 37 33 33 32 32 31 31 32 32 33 31 27 26 25 25 30 32 33 33 34 30 32 31 32 34 35 38 38 38 40 40 40 39 41 42 42 42 43 45
27 25 26 27 27 25 26 26 27 32 38 36 33 33 32 32 32 32 32 31 28 25 25 24 25 29 30 31 32 33 29 31 28 30 32 33 37 36 37 40 40 40 39 40 41 41 41 41 41
23 23 22 25 27 26 25 14 27 33 36 35 34 33 32 32 32 32 32 31 27 23 22 23 26 27 29 28 29 28 29 29 28 30 31 30 37 36 37 39 39 39 38 40 40 38 40 40 42
21 16 19 21 26 27 25 21 25 33 35 33 32 32 32 32 32 31 31 30 27 23 23 25 25 25 27 26 27 28 29 29 29 29 30 29 33 35 35 38 38 37 38 39 38 39 39 39 40
16 18 18 18 23 27 26 24 30 33 33 32 31 31 32 32 32 32 30 29 28 24 23 25 25 24 25 27 28 28 28 28 29 29 30 28 31 33 33 35 36 37 37 36 37 36 39 37 39
21 20 19 19 23 24 25 25 26 32 32 31 31 31 31 32 33 31 29 27 26 24 23 23 24 23 26 26 26 27 26 27 29 29 29 28 30 31 31 33 35 35 35 36 37 37 37 37 38
20 19 19 20 25 23 24 24 25 28 32 32 31 31 31 32 33 31 27 25 24 23 23 22 23 24 26 27 28 28 27 28 29 31 30 29 30 28 30 31 33 33 33 33 32 35 35 37 37
21 20 20 19 22 24 23 22 22 23 26 31 33 32 31 31 32 31 27 23 22 22 23 22 23 24 27 26 28 29 30 29 29 29 27 30 30 28 29 29 30 30 32 31 32 32 32 33 35
19 24 22 20 19 16 22 14 20 19 20 23 29 32 31 31 32 32 28 23 22 21 22 22 23 24 26 27 27 27 27 27 28 27 29 28 27 27 29 28 28 30 31 31 32 33 33 35 32
19 23 22 22 20 21 20 19 19 20 19 19 22 31 32 31 32 32 30 27 23 21 21 22 24 23 26 26 27 27 28 29 29 29 26 27 27 29 28 28 29 29 30 32 31 33 34 33 33
26 24 24 25 24 18 20 17 10 15 16 17 21 25 32 32 32 32 31 28 24 22 22 23 23 23 24 26 27 27 27 28 28 27 27 27 28 29 28 29 30 31 30 30 32 32 32 33 35
24 22 17 17 22 15 17 17 14 17 20 19 20 23 30 32 32 32 30 28 24 22 24 25 24 24 25 26 26 26 27 26 26 26 26 26 27 26 28 29 30 30 31 30 29 30 33 33 33
24 20 15 9 14 13 24 20 20 19 19 20 20 23 29 32 32 32 31 29 26 23 26 26 26 26 26 26 26 25 23 25 27 27 27 26 26 27 29 29 30 31 30 30 30 32 32 33 34
24 22 20 16 18 17 16 18 20 20 20 23 23 28 29 32 32 32 32 32 27 24 26 27 27 27 28 26 25 22 22 22 25 27 27 26 27 29 29 29 30 31 31 31 32 32 32 33 34
24 26 21 21 15 13 13 15 13 13 13 19 23 26 30 31 32 32 31 31 30 27 28 28 28 28 28 27 24 22 20 19 22 23 24 26 28 27 27 30 31 31 31 31 31 32 32 33 36
23 23 25 22 20 12 10 11 15 13 15 17 22 24 29 31 31 32 30 31 32 30 28 29 28 28 28 26 24 22 19 20 21 22 23 24 25 27 29 29 29 29 30 31 31 31 32 33 34
23 21 22 21 20 19 16 14 15 12 15 18 20 23 26 32 32 31 30 30 31 30 29 28 29 28 28 26 24 21 20 20 21 22 22 24 25 26 27 27 28 29 29 30 30 30 31 32 33

GFSSGP_sfc_30mbdewp_006.txt.gz
Dewpoint
66 65 61 59 48 45 44 46 49 47 46 50 54 53 53 54 52 50 64 69 70 70 74 74 73 72 71 71 71 72 72 72 72 71 71 71 71 71 71 71 71 71 70 70 70 70 70 70 71
66 60 57 53 43 40 41 43 45 46 48 49 47 47 49 50 49 48 61 69 71 72 74 74 72 72 72 71 71 71 71 71 71 70 70 69 69 69 69 71 71 71 71 71 71 70 71 70 71
55 59 46 44 40 40 40 41 44 45 46 42 40 41 41 43 44 45 60 70 73 73 73 73 72 73 72 72 71 71 70 69 69 69 67 66 65 64 62 66 69 70 71 72 72 71 70 70 70
48 51 48 37 36 38 41 40 42 42 40 39 40 39 39 39 42 46 66 70 72 73 73 74 72 72 71 69 67 68 68 67 66 67 67 64 64 64 61 61 62 63 66 68 70 71 71 70 70
51 48 39 36 35 36 38 39 41 39 35 37 37 36 38 39 43 51 64 69 70 72 72 72 71 72 70 67 64 63 64 61 60 63 66 66 62 65 64 62 63 62 62 62 63 67 70 71 70
46 45 34 31 34 33 33 35 33 36 33 35 36 37 37 39 42 49 58 67 71 72 73 73 72 70 67 63 61 61 57 55 55 57 58 59 59 59 59 61 63 62 63 63 61 63 65 69 70
45 42 32 33 34 32 32 31 27 30 31 30 35 34 37 38 41 48 50 63 68 71 71 70 69 68 66 63 63 55 52 53 52 55 55 54 55 54 55 56 58 58 58 59 61 63 65 64 69
48 44 38 34 32 31 32 28 28 28 28 33 35 31 35 37 40 48 45 49 58 67 67 66 64 61 60 54 54 52 51 50 50 52 51 49 48 48 51 53 54 55 54 56 56 59 66 63 63
47 36 30 32 33 33 30 23 26 31 32 36 37 34 35 38 41 42 42 42 43 50 56 50 46 49 41 40 45 47 48 46 46 45 46 42 43 45 45 49 50 52 51 51 51 52 51 50 53
37 26 28 36 34 31 28 24 27 30 34 34 34 36 37 37 39 40 40 40 39 38 37 37 36 37 38 37 36 36 39 38 39 39 38 40 41 44 44 46 47 48 47 46 47 48 47 46 48
36 31 37 33 34 30 27 24 26 29 31 35 33 35 36 36 37 38 39 39 37 35 33 33 35 37 38 36 35 35 35 36 37 37 37 39 40 40 41 41 42 43 44 42 42 43 43 43 46
32 35 34 33 30 30 27 28 23 30 28 34 35 35 35 35 36 37 38 37 36 32 31 31 34 36 37 37 34 35 34 35 35 36 36 38 39 39 40 40 41 40 41 41 42 42 42 42 44
31 29 32 32 30 28 28 25 24 26 35 35 35 34 34 34 34 35 37 36 34 30 28 30 32 33 35 35 34 33 33 33 35 35 36 38 38 38 39 40 41 39 39 41 41 41 41 41 42
27 29 31 32 30 27 27 27 27 28 35 35 33 32 32 32 31 34 36 35 33 30 26 27 30 32 34 34 33 31 32 31 32 34 34 37 37 37 39 40 40 39 39 40 40 39 40 40 41
29 27 29 29 28 25 27 25 26 30 35 34 32 32 32 32 32 32 35 35 33 29 26 25 28 31 32 32 33 30 31 29 29 32 31 36 37 36 37 38 39 39 38 39 38 39 39 39 40
24 24 21 23 27 26 25 15 23 32 34 33 32 32 32 32 32 32 33 34 32 28 25 25 28 30 30 30 30 29 30 29 29 31 29 32 37 35 36 38 37 38 37 39 37 38 38 36 38
22 14 19 19 28 26 23 18 23 31 37 35 33 32 32 32 32 32 33 32 30 25 24 25 27 29 28 28 28 29 29 29 29 30 29 29 34 35 34 36 36 38 37 37 38 35 38 35 36
13 17 18 16 23 27 25 23 24 31 36 34 34 34 33 33 32 33 32 32 28 24 23 25 25 27 27 27 29 29 29 29 29 29 30 28 30 32 31 33 34 37 36 35 37 35 37 36 37
16 19 18 20 22 25 24 24 25 27 34 34 33 33 33 32 33 33 32 31 27 23 23 25 24 24 27 27 27 27 26 27 29 29 30 28 30 30 29 31 33 35 34 34 35 35 35 33 38
22 18 16 20 22 24 23 24 26 28 30 32 32 32 32 32 32 33 32 30 28 23 23 24 25 24 26 27 27 27 27 27 28 30 31 29 29 30 28 30 31 33 32 32 31 33 33 36 36
24 20 20 19 21 24 24 23 24 26 28 30 32 32 32 31 31 33 32 30 27 24 23 22 24 24 27 27 29 29 30 30 29 30 28 28 30 30 29 29 30 30 32 31 32 32 32 31 34
21 24 23 21 20 17 23 13 17 20 20 25 29 31 32 32 32 32 32 29 26 25 24 23 24 25 27 28 27 27 26 25 27 27 28 28 28 27 28 29 28 29 30 30 31 33 33 34 32
21 24 23 22 20 20 20 18 17 20 18 17 19 23 29 32 32 32 32 29 25 24 24 23 23 25 27 27 28 27 27 28 28 29 28 27 27 29 29 28 28 29 30 31 30 31 31 32 32
23 23 25 27 24 18 19 18 13 15 17 16 16 17 22 32 32 32 32 28 24 23 23 23 23 25 26 27 27 27 27 28 29 28 28 27 28 29 29 28 29 29 30 29 31 30 30 30 32
24 21 16 16 19 15 18 19 16 14 15 15 14 17 23 31 32 32 31 28 24 23 23 24 24 24 26 26 27 28 27 27 27 27 27 26 27 27 26 28 27 29 30 31 31 29 30 30 31
24 20 16 10 10 10 20 15 14 19 17 17 19 20 23 32 32 32 32 30 26 24 23 24 24 25 25 26 27 27 27 27 27 27 27 27 27 27 27 28 29 29 31 32 31 31 31 32 32
21 22 20 15 17 15 16 21 18 22 21 20 21 21 23 29 32 32 32 30 28 25 24 24 25 25 25 26 27 26 26 25 25 27 28 28 27 28 28 29 29 29 31 32 32 32 31 32 33
22 24 20 21 15 13 13 14 12 14 15 16 20 22 23 30 32 33 32 30 28 26 25 25 26 25 26 26 26 25 24 23 24 25 25 26 27 28 28 27 29 31 31 30 30 31 32 32 34
23 22 24 22 20 15 13 13 16 15 15 14 16 21 24 29 32 33 33 32 29 25 25 26 27 26 27 27 26 25 23 21 21 22 23 24 25 25 26 28 29 29 29 29 30 30 31 32 32
23 21 21 20 19 20 17 15 17 16 16 17 16 18 25 31 32 33 32 32 30 27 27 27 27 27 28 28 27 25 22 21 20 21 22 23 24 25 26 27 27 28 28 29 29 29 30 31 32

GFSSGP_sfc_30mbdewp_009.txt.gz
Dewpoint
66 64 60 57 47 45 44 46 49 47 46 50 53 53 53 53 52 48 66 67 70 72 74 74 73 72 72 71 72 72 72 71 71 70 70 70 70 70 71 71 71 71 71 70 70 71 70 71 71
65 59 57 52 42 39 41 43 46 46 50 51 46 48 50 50 49 56 66 69 70 72 74 73 72 72 72 71 71 71 70 70 69 68 66 66 63 65 68 69 69 70 71 71 71 70 70 70 71
56 56 47 43 41 39 39 42 45 47 49 43 41 41 43 45 46 46 63 72 72 72 73 72 72 72 72 71 71 69 68 67 67 65 64 63 61 60 61 63 63 66 69 70 71 71 70 70 70
49 50 44 38 37 39 41 42 44 47 42 40 40 39 39 40 42 58 69 72 72 73 73 73 71 71 70 68 68 68 65 63 65 66 64 63 64 62 61 61 61 62 63 63 68 70 71 70 70
52 46 37 36 35 36 38 41 44 42 36 39 38 38 39 40 48 66 69 71 70 72 72 72 71 69 66 65 64 62 59 60 62 66 62 61 64 62 62 62 62 61 61 61 63 65 68 70 71
44 42 35 33 34 34 35 37 40 39 34 36 36 38 38 40 58 64 68 70 71 71 72 72 71 68 65 60 58 57 56 58 59 60 59 59 59 59 59 60 59 59 60 61 62 63 62 65 69
42 37 33 33 33 32 34 32 30 35 33 34 37 37 37 38 49 59 66 69 71 72 72 71 68 66 64 63 55 55 55 55 57 56 55 54 54 56 56 58 58 57 59 58 60 63 61 58 65
49 41 35 33 32 32 33 30 27 30 30 35 35 33 35 38 46 53 61 66 70 70 68 66 64 61 53 56 55 54 53 53 53 52 50 50 49 50 53 54 55 55 55 55 55 55 53 53 58
45 36 32 31 33 33 32 27 27 32 31 35 35 35 36 38 46 47 54 56 62 64 63 59 55 49 44 47 53 51 50 49 47 45 46 43 44 45 48 51 51 51 50 50 51 51 50 49 51
34 28 29 35 36 34 31 25 27 30 32 33 34 36 37 39 44 44 50 55 57 58 53 47 45 37 37 36 38 39 39 38 37 36 39 40 41 45 45 47 46 46 46 46 47 47 45 45 46
37 26 28 36 33 33 30 26 28 29 30 32 31 34 37 39 43 43 43 47 54 52 41 37 37 37 36 35 35 36 36 37 36 35 38 39 39 40 40 41 40 41 44 42 42 41 42 42 43
31 35 36 34 31 30 28 27 23 30 27 33 34 35 37 38 41 41 41 41 41 38 36 35 36 38 37 38 34 34 34 35 35 35 37 37 38 39 40 40 40 39 41 40 39 40 40 41 41
31 30 34 33 31 29 29 27 26 25 30 35 35 36 36 36 39 39 41 40 37 35 33 34 35 36 36 34 34 35 36 34 35 35 37 37 37 38 39 40 39 38 40 39 38 38 39 39 40
28 30 30 32 30 29 27 27 27 26 29 34 35 34 35 35 36 37 38 39 36 33 32 31 33 34 35 33 32 32 32 33 34 34 37 37 36 37 39 39 38 38 38 38 38 37 38 37 38
28 26 28 30 30 28 27 25 26 27 33 32 34 34 34 34 35 35 36 37 36 32 29 29 32 33 33 33 31 31 31 31 33 32 35 37 36 36 38 38 37 38 38 37 37 35 37 35 36
24 24 22 24 29 28 25 16 21 29 32 31 32 33 33 33 33 33 35 37 35 32 27 27 31 32 32 32 32 30 31 29 32 31 32 36 36 35 36 36 36 38 37 38 37 36 35 34 36
22 15 19 21 26 26 24 17 19 25 32 31 32 33 32 32 32 33 33 36 35 32 27 26 30 31 31 31 31 29 30 29 30 30 29 32 35 34 33 35 35 37 36 36 37 34 37 34 33
14 17 18 15 18 27 24 22 22 28 34 31 33 33 33 32 32 33 32 34 35 30 27 25 28 29 29 29 29 30 30 30 29 30 29 29 32 33 31 32 33 36 35 33 35 33 35 34 33
16 17 14 17 19 24 23 24 24 25 31 32 35 34 34 33 33 33 33 33 32 28 26 25 26 28 28 28 28 28 27 28 29 30 30 28 30 31 30 30 32 34 34 32 34 33 33 31 36
24 19 18 20 21 23 21 21 25 26 28 28 30 34 34 34 34 34 33 32 31 27 25 25 25 27 27 28 28 26 27 27 28 30 30 30 29 30 29 29 30 33 31 31 31 32 32 34 36
23 23 20 17 18 24 24 21 23 25 27 29 30 31 32 33 33 34 33 32 31 27 24 24 25 26 27 28 28 28 29 30 29 31 30 29 29 30 29 29 29 30 31 30 31 32 32 31 34
17 24 24 22 22 20 23 11 15 20 21 25 27 28 31 32 33 33 33 33 31 28 25 24 25 25 27 28 28 26 26 25 27 28 29 28 29 28 27 29 28 29 30 30 31 33 32 33 30
25 24 24 24 23 21 21 18 16 19 17 17 18 23 26 29 32 32 32 33 31 29 24 24 25 25 26 28 28 27 26 26 28 28 27 27 27 27 29 28 27 28 30 30 30 30 30 32 30
25 24 25 28 24 19 19 17 14 13 16 17 18 19 20 22 28 33 32 33 32 29 25 24 25 25 27 28 28 27 26 27 27 28 27 27 28 29 29 28 28 28 29 30 29 31 30 29 30
25 22 19 16 19 16 17 17 15 14 17 17 17 16 17 18 22 31 32 33 31 28 26 25 24 25 27 27 28 27 26 27 27 27 28 28 27 28 28 27 27 27 28 30 30 31 30 30 30
23 21 17 12 13 11 20 15 14 18 19 19 19 17 18 19 28 32 33 32 29 27 26 26 25 25 26 27 28 28 27 28 28 28 28 27 27 27 27 27 28 28 29 30 32 32 31 31 32
20 21 22 18 17 15 14 16 19 21 21 20 21 20 21 22 27 31 33 32 29 25 25 26 25 25 26 26 27 28 28 28 28 28 28 28 28 29 28 28 28 29 29 30 32 31 31 31 32
23 23 19 20 16 15 16 15 14 14 14 15 16 19 21 23 27 31 33 32 29 25 25 25 25 25 25 26 27 27 27 28 28 27 27 28 28 28 28 29 29 28 30 30 30 30 30 31 32
25 23 23 22 20 17 15 16 18 17 17 17 16 16 17 19 24 31 33 32 30 27 26 25 25 25 25 25 26 26 26 26 25 25 25 27 27 27 27 27 27 28 29 28 29 29 30 30 31
30 25 26 24 24 23 19 18 20 18 17 17 18 19 20 21 24 31 33 32 30 28 26 26 25 25 25 26 26 26 26 24 23 22 23 24 24 26 25 26 27 28 27 28 28 28 29 30 31

GFSSGP_sfc_30mbdewp_015.txt.gz
Dewpoint
66 61 61 56 49 47 46 47 48 47 48 50 55 53 50 52 51 45 65 66 68 69 72 72 73 73 71 69 71 71 71 70 69 68 66 68 69 69 69 69 71 72 72 71 71 71 71 71 71
61 59 55 52 44 41 41 46 48 48 50 53 51 52 53 50 54 64 64 68 69 71 72 71 72 72 72 72 71 69 69 67 66 63 62 62 64 64 65 66 67 67 70 71 71 71 70 71 70
58 53 49 45 44 40 39 44 48 48 52 45 45 44 49 49 49 64 65 69 70 71 71 72 72 72 72 70 68 67 66 65 65 64 63 63 62 62 63 63 64 64 67 68 70 71 71 70 70
50 50 44 40 39 40 42 44 47 51 48 46 42 44 42 46 52 60 68 69 69 70 71 72 72 72 71 68 68 66 67 66 65 63 66 64 62 63 63 63 64 64 64 66 66 68 70 71 71
51 46 39 38 38 37 41 43 50 49 45 40 41 41 43 41 45 63 69 69 68 69 71 70 72 71 69 68 64 65 66 67 65 63 63 63 62 61 61 61 62 63 66 66 63 64 68 69 70
42 43 38 37 37 36 35 43 48 47 39 39 39 40 42 42 57 68 70 68 68 69 70 70 71 69 68 63 62 63 65 64 63 62 62 61 61 61 61 61 60 61 62 62 61 60 64 65 67
33 39 38 38 36 35 36 42 46 46 38 37 39 39 40 41 61 69 68 68 69 69 70 70 67 67 66 62 61 62 62 61 60 59 58 59 59 60 59 59 59 58 58 59 59 57 59 61 62
46 38 33 35 35 36 35 40 37 42 42 37 39 36 36 40 62 67 68 68 69 70 70 68 65 62 59 59 59 59 59 57 57 56 55 56 57 57 57 56 55 56 56 56 56 54 54 56 57
44 32 26 31 34 35 35 35 30 34 34 36 37 36 37 42 61 65 66 66 66 68 69 65 61 58 57 57 57 57 56 55 53 51 50 47 49 51 52 53 53 53 52 52 51 50 48 47 50
37 27 25 34 36 34 34 33 30 31 32 33 35 36 38 47 61 62 63 63 63 64 66 63 57 55 54 54 53 51 47 41 41 39 42 44 45 47 47 49 49 48 47 47 47 45 42 40 40
32 21 28 28 37 37 34 32 30 30 30 32 32 34 38 46 59 61 61 61 62 64 65 61 52 50 50 47 42 39 37 36 37 37 38 39 40 39 38 41 40 40 40 37 37 36 38 40 39
29 33 35 36 35 34 31 31 30 31 33 32 34 35 38 44 53 59 60 61 62 65 64 60 48 43 44 41 38 37 36 35 35 36 37 38 39 38 37 38 38 38 36 35 35 34 34 34 36
32 32 33 35 36 33 31 30 29 28 31 32 34 35 36 41 47 55 58 60 62 62 62 55 47 40 38 39 38 37 37 34 36 36 36 38 40 38 38 36 37 37 36 34 34 33 32 31 29
28 28 29 31 32 32 30 30 30 30 31 29 31 33 35 37 43 47 55 58 60 60 58 52 46 39 37 37 37 36 38 35 36 38 36 38 39 38 38 37 38 37 36 34 34 31 32 32 29
26 25 26 27 29 29 31 26 25 30 29 28 29 31 34 37 39 43 46 52 55 59 58 49 45 40 37 36 36 38 37 37 36 38 37 38 39 38 38 36 36 37 36 34 34 33 30 30 30
23 24 19 23 29 30 28 18 23 26 27 26 29 29 33 35 37 38 43 45 49 54 55 49 43 40 37 36 36 36 36 36 36 37 37 36 38 38 38 37 37 38 37 37 33 33 32 30 30
24 11 18 17 24 28 27 23 25 26 26 26 26 27 30 32 35 37 39 42 44 46 50 47 42 39 37 35 34 34 34 35 34 35 37 37 37 38 37 36 38 38 36 36 32 34 32 31 31
4 15 17 16 17 25 23 24 26 27 27 25 25 26 28 30 31 34 37 39 41 42 43 45 41 38 36 35 33 33 32 33 34 32 35 36 37 36 36 36 37 37 36 36 34 32 34 33 33
21 19 19 19 20 19 18 19 21 22 26 26 26 26 27 28 29 33 35 36 38 40 39 37 38 36 35 34 32 32 31 31 32 33 32 35 36 35 35 35 35 37 34 35 34 34 33 32 34
22 21 19 21 22 22 20 18 20 21 20 21 24 25 25 26 29 32 34 35 35 37 38 35 35 35 34 35 32 30 30 30 31 34 33 33 35 34 33 33 34 36 35 35 34 34 33 33 34
23 20 18 16 19 22 21 15 15 20 22 23 26 26 26 27 27 29 34 34 35 36 36 35 34 35 34 34 33 31 31 32 31 32 33 33 32 34 31 32 33 34 34 33 34 35 33 29 32
20 21 19 19 20 14 22 10 14 14 14 20 23 27 27 28 30 30 32 35 35 35 36 35 34 34 34 34 32 30 29 28 30 30 32 33 31 32 32 31 32 33 33 33 33 34 33 33 27
20 25 23 24 23 23 21 19 11 16 14 14 16 20 24 26 27 28 31 34 35 35 36 35 33 33 33 32 32 31 30 31 31 31 31 32 32 31 32 31 31 31 33 32 32 33 33 33 30
26 25 25 28 25 19 18 17 13 13 14 17 16 17 18 21 22 25 28 33 35 37 37 36 33 32 33 32 32 32 31 31 30 30 30 31 32 31 31 31 31 31 32 32 33 32 33 33 32
23 21 17 14 19 16 19 18 15 16 17 17 18 22 26 30 30 29 27 28 31 37 37 36 34 32 32 32 32 31 32 30 29 30 30 30 30 30 30 31 30 31 33 33 33 33 33 33 32
25 22 19 14 13 14 18 16 16 18 20 27 29 30 30 32 32 33 32 32 31 33 37 36 33 32 31 31 31 31 32 31 30 30 30 30 30 30 30 31 30 30 31 32 33 33 33 33 33
24 23 24 23 24 21 20 20 21 21 25 26 24 20 20 26 31 34 36 35 34 33 35 34 32 31 30 30 31 30 30 30 30 30 31 31 30 30 31 31 31 30 30 31 32 32 32 33 32
31 30 25 25 20 17 19 20 21 24 27 25 22 20 19 27 33 36 37 37 35 34 34 32 31 30 30 29 29 30 29 30 30 30 30 31 30 29 31 31 30 30 30 31 32 32 33 32 32
21 19 17 25 23 21 20 22 28 25 26 18 13 21 22 30 34 36 37 37 36 34 32 31 30 29 29 29 29 29 29 29 29 29 30 30 30 31 30 30 30 30 30 30 30 31 31 31 30
23 28 21 18 15 19 18 16 21 25 15 14 21 21 23 26 32 37 36 37 38 37 33 29 29 28 29 29 29 29 29 29 29 28 28 29 29 31 30 29 29 29 30 29 29 29 27 29 31

GFSSGP_sfc_30mbdewp_021.txt.gz
Dewpoint
64 58 60 61 54 48 44 44 44 45 44 46 47 46 44 42 42 50 62 61 55 60 64 69 73 71 72 71 73 70 70 67 67 68 67 67 67 68 68 68 70 71 72 71 71 71 71 70 71
57 58 59 56 46 42 43 43 43 44 45 47 48 47 45 40 47 60 60 62 56 60 63 66 73 71 70 72 71 69 68 65 64 65 64 65 65 65 66 66 68 69 70 70 72 71 71 71 71
58 56 53 48 42 38 41 42 42 44 47 46 45 48 43 41 45 54 58 62 60 60 62 70 73 72 73 71 70 68 66 64 65 64 64 64 64 65 66 66 66 68 68 69 71 71 71 71 70
52 52 47 43 40 41 41 41 44 45 47 46 43 39 44 47 47 52 60 61 61 62 63 71 73 73 70 69 68 67 66 66 66 65 63 64 64 63 64 64 67 67 65 67 69 69 70 71 71
51 49 44 40 39 39 41 42 44 45 45 44 43 39 41 47 53 57 59 61 62 62 62 66 73 72 70 69 67 66 66 66 66 65 63 62 62 62 63 62 63 64 63 63 66 67 68 69 71
41 41 36 33 33 35 40 40 43 44 44 43 42 40 41 47 50 58 59 60 61 60 60 65 73 71 70 68 67 68 67 65 64 63 63 62 63 62 61 61 61 61 61 61 62 64 65 67 70
38 34 31 28 28 30 34 40 39 41 42 42 42 38 39 44 49 58 58 58 58 56 56 58 65 70 69 67 67 68 66 65 64 63 62 62 62 61 60 59 60 60 60 59 59 61 62 64 66
42 34 29 27 25 27 28 39 40 39 37 42 42 36 33 40 48 56 57 56 55 53 54 53 62 68 66 65 66 67 65 64 62 61 60 61 60 59 57 58 58 58 57 57 56 56 58 59 60
43 25 19 21 22 25 27 31 31 38 38 37 40 40 39 40 48 54 55 56 53 53 53 52 57 63 62 61 63 64 63 61 60 59 59 58 51 52 53 56 55 55 54 53 52 51 48 52 54
28 18 14 19 28 26 27 27 29 28 30 26 33 37 40 41 49 52 53 53 52 52 53 53 53 57 59 58 60 57 55 54 51 47 46 41 43 46 50 52 52 51 49 47 45 42 41 43 41
21 18 13 23 21 26 24 23 23 26 28 22 21 27 34 39 48 51 51 50 50 52 53 53 53 53 56 56 56 51 49 46 41 38 36 36 43 44 44 45 42 39 39 33 35 33 34 35 37
24 16 20 21 24 27 23 22 21 24 24 24 25 32 32 38 41 48 49 49 48 50 53 55 53 53 53 55 53 49 46 37 33 33 33 36 36 35 34 33 35 35 32 31 30 30 31 31 27
22 21 22 24 25 26 25 24 23 23 22 22 24 25 33 33 37 40 46 46 47 48 51 54 56 52 52 52 52 50 41 32 32 33 32 34 35 33 33 33 33 33 31 29 29 28 27 25 24
24 26 22 21 21 21 20 22 24 21 22 21 23 23 23 30 32 35 38 44 45 46 48 53 57 54 51 50 50 48 40 34 32 34 34 34 35 34 34 33 34 32 31 30 28 27 28 26 23
25 21 17 16 15 19 25 21 20 21 22 21 18 16 18 19 25 30 32 36 41 43 45 49 54 57 52 49 49 48 43 37 34 35 35 34 35 34 34 33 33 32 31 27 27 24 25 27 26
20 17 11 17 22 22 25 10 8 16 20 15 14 10 9 15 18 20 27 31 34 39 42 46 52 56 54 49 48 46 43 39 37 36 36 34 36 36 34 34 33 33 32 31 30 30 29 28 27
10 10 9 6 16 17 20 17 16 15 15 15 15 14 14 12 9 14 17 24 28 31 37 41 49 53 55 50 46 44 42 42 39 36 36 35 36 36 35 35 35 34 34 33 31 31 30 29 29
4 3 2 1 4 13 10 11 12 13 14 14 13 14 14 14 13 10 12 16 22 27 32 38 44 51 54 51 46 43 42 42 40 37 37 35 38 37 36 36 36 35 35 33 33 30 30 29 28
10 9 7 8 11 12 12 15 17 19 18 19 19 18 16 16 17 17 18 16 16 26 30 35 40 46 52 51 46 43 42 42 41 40 37 37 38 38 38 38 36 36 36 34 33 30 31 31 30
15 15 16 17 17 18 18 19 20 21 21 21 18 16 18 21 22 28 28 30 31 28 30 32 35 41 49 51 48 45 43 42 42 42 40 39 38 38 37 38 37 37 37 35 35 33 31 29 30
18 17 18 18 19 21 19 16 14 12 18 18 25 27 29 29 29 29 30 32 34 34 35 34 34 36 42 51 50 48 45 44 43 42 41 40 38 38 37 37 36 37 37 36 37 36 36 31 31
19 23 23 21 21 15 18 13 15 13 15 24 27 27 24 23 25 27 29 30 31 33 36 39 37 35 37 44 50 49 46 44 43 42 41 39 38 37 37 35 35 35 36 36 37 35 35 34 30
20 23 23 23 21 22 20 17 12 15 17 23 25 23 20 18 18 22 24 28 30 32 34 37 39 37 37 37 47 50 48 46 44 41 40 39 38 37 37 33 34 34 36 34 34 33 32 32 29
25 25 22 21 23 20 15 15 12 14 19 24 25 25 24 19 18 22 23 24 25 31 35 37 37 38 39 41 41 49 48 47 43 41 40 40 38 37 36 34 34 34 35 34 34 33 32 31 29
26 19 10 8 21 17 14 12 12 15 25 24 18 18 16 16 18 22 24 25 25 31 33 34 37 39 38 37 41 42 48 47 45 42 40 39 37 36 36 35 33 34 36 35 35 34 33 31 31
25 21 15 7 4 6 16 11 9 18 22 18 11 6 5 15 23 25 25 27 27 30 31 33 35 38 38 36 38 40 43 46 45 44 41 39 38 36 36 36 34 34 35 35 35 35 35 32 32
18 15 23 23 18 13 11 9 9 10 13 8 4 3 4 13 22 24 26 27 28 29 31 34 35 37 39 36 35 37 38 42 44 44 43 39 38 37 37 36 35 33 33 35 34 34 33 31 32
19 10 6 9 3 -3 -8 -3 1 10 7 5 6 6 7 17 22 24 26 27 28 30 31 33 35 37 39 38 34 35 36 37 40 42 43 39 38 38 37 36 35 34 33 34 34 33 31 31 32
5 5 9 11 13 7 6 6 7 8 7 9 8 6 10 21 22 24 25 25 27 29 31 30 31 36 38 40 37 34 34 35 36 38 41 39 39 37 37 36 35 34 32 32 31 31 30 30 30
6 8 16 12 11 12 11 11 10 9 10 8 6 9 17 21 22 23 23 24 25 29 27 25 27 33 37 39 40 34 33 34 34 35 37 38 38 37 36 35 34 33 32 31 29 29 28 29 29

GFSSGP_sfc_30mbdewp_027.txt.gz
Dewpoint
65 61 65 62 54 54 47 46 50 43 43 45 45 42 43 45 47 48 63 62 70 70 72 73 72 72 70 71 70 70 70 69 69 69 69 69 69 69 70 71 71 72 71 71 71 71 71 71 71
64 60 61 59 50 45 43 48 45 43 44 45 45 42 42 48 60 61 61 60 67 70 71 73 72 73 72 71 70 69 68 68 67 67 67 67 67 68 68 68 68 70 72 70 72 71 71 71 71
62 59 54 53 50 43 39 45 45 44 45 44 43 44 41 45 60 59 62 59 67 67 71 72 73 73 72 71 70 68 67 66 65 65 64 65 65 65 66 66 67 69 69 69 70 71 72 71 72
53 56 52 45 43 45 43 44 43 45 46 45 44 42 45 47 59 60 60 58 62 65 71 74 73 73 72 71 70 67 66 65 64 65 64 64 64 64 65 64 64 66 67 68 68 68 70 71 72
51 53 48 46 43 40 44 44 42 42 43 45 44 42 45 53 58 61 59 57 66 70 72 73 73 73 72 71 69 67 67 67 64 63 63 63 63 62 63 63 62 63 64 65 66 67 69 72 71
45 48 38 35 34 33 31 38 39 38 38 42 43 42 45 53 59 61 61 59 67 70 72 73 74 73 71 70 69 68 66 67 63 63 63 63 62 61 62 62 61 61 61 62 64 66 68 70 70
43 42 36 34 33 29 30 33 36 34 34 36 43 40 46 51 57 59 59 60 65 68 70 73 73 72 71 70 68 68 67 65 64 63 63 62 62 61 60 61 61 60 60 61 61 62 66 68 67
43 42 35 31 27 25 30 26 31 30 33 35 36 40 43 48 56 58 58 58 61 66 69 72 71 71 71 70 70 68 67 65 64 63 63 62 61 59 60 59 59 59 58 58 59 59 60 62 64
42 26 25 22 22 25 28 24 26 26 29 33 34 39 40 47 55 56 56 56 58 61 67 71 71 70 69 68 69 68 67 65 64 62 63 61 59 59 59 58 57 56 56 55 54 52 52 55 57
35 32 23 27 22 22 23 25 26 23 21 22 25 29 44 48 52 55 54 54 55 54 57 68 70 70 68 67 68 68 66 65 63 62 61 60 58 57 57 56 55 52 50 48 46 44 45 47 49
30 22 27 25 23 25 23 25 27 24 20 22 25 28 36 46 49 53 53 54 53 53 52 62 68 67 67 65 67 66 64 62 61 60 59 58 56 57 54 53 52 48 46 43 42 38 36 35 39
25 28 27 26 26 26 24 26 24 25 24 25 26 25 31 43 46 48 51 52 53 52 52 53 65 65 65 64 65 64 62 60 58 56 56 52 53 52 50 48 46 40 43 41 38 34 33 31 27
21 22 27 27 27 25 25 23 24 24 26 26 25 25 25 27 40 44 48 50 51 50 52 52 54 64 62 63 63 60 58 58 54 51 50 46 47 47 48 45 45 42 38 33 33 31 30 26 25
25 27 27 25 22 23 21 22 25 24 25 25 24 24 25 24 25 32 34 45 49 49 49 53 52 53 58 60 60 58 54 54 49 45 44 43 43 41 43 41 40 37 35 34 32 31 29 27 26
24 22 23 22 23 23 24 21 19 20 21 22 21 17 16 17 23 32 33 33 39 44 47 53 53 53 53 57 57 56 52 48 43 39 38 40 41 39 38 37 37 36 34 33 31 30 30 29 28
18 21 16 18 20 26 18 16 20 20 19 16 15 16 17 31 32 32 34 35 36 35 38 46 53 54 53 53 55 54 52 43 38 38 37 37 39 39 38 37 37 36 34 32 30 28 28 29 29
22 14 12 10 14 20 22 15 18 21 19 18 17 19 29 30 31 31 32 33 34 35 36 39 41 47 55 55 53 54 52 45 39 39 38 36 38 40 38 37 37 37 35 33 32 33 30 30 31
13 10 10 9 12 19 20 21 22 23 23 27 28 28 26 25 26 28 28 29 31 33 34 35 38 39 41 52 54 52 50 46 41 39 39 37 38 40 39 39 38 38 35 33 34 33 34 33 32
18 17 17 19 21 22 21 20 21 28 27 22 20 19 20 22 24 26 27 26 27 32 33 33 35 37 40 39 40 50 49 47 43 40 39 39 38 38 39 40 39 38 36 35 35 34 31 31 32
20 20 20 22 25 23 21 20 25 22 21 19 18 18 19 22 24 25 26 27 28 31 33 32 32 35 39 40 41 42 49 47 45 43 41 40 39 39 40 40 40 39 37 37 36 33 34 32 32
21 21 22 22 25 24 21 19 25 22 21 21 19 19 21 23 24 25 26 27 28 28 33 32 31 33 37 40 41 40 40 45 45 44 42 40 39 40 40 40 40 39 39 37 37 34 33 32 35
20 24 23 23 23 16 24 19 23 22 22 19 13 16 21 23 24 25 25 27 28 29 31 34 33 35 36 38 39 40 39 39 42 47 45 43 41 40 40 40 41 40 40 39 38 37 35 33 32
22 25 25 26 25 25 24 22 24 24 12 7 8 8 12 23 23 24 25 27 28 30 30 32 35 34 36 36 38 40 40 39 40 44 46 44 43 40 40 40 41 40 40 39 39 38 37 36 34
26 24 16 20 22 17 18 21 23 19 8 9 10 10 10 12 23 23 25 26 27 29 29 31 31 33 36 35 36 37 39 39 38 38 44 45 44 42 41 40 40 40 40 40 39 39 38 37 35
19 17 12 12 16 16 20 13 16 8 10 11 11 10 11 11 22 23 24 24 25 26 25 27 28 31 34 31 31 34 39 39 39 38 39 47 45 43 41 40 39 39 40 40 40 39 38 37 36
19 19 18 7 12 18 18 8 12 10 13 13 12 11 10 11 22 23 23 23 25 24 24 26 27 31 29 29 29 30 39 41 41 40 38 38 46 44 42 40 39 38 39 40 39 39 38 37 36
19 14 15 13 18 15 17 14 10 12 13 13 13 12 9 10 20 21 22 22 24 23 23 25 28 26 26 27 28 30 39 39 40 40 40 38 40 45 42 40 39 38 38 39 39 38 37 36 35
15 17 13 10 3 4 6 9 14 11 13 14 13 12 12 15 21 22 23 23 24 23 23 26 26 26 26 27 28 33 38 38 39 41 41 39 37 44 43 41 39 37 37 38 38 38 36 35 35
8 6 8 9 7 3 3 7 13 14 15 14 13 13 13 19 22 22 22 22 23 23 25 25 25 26 26 27 30 35 35 37 40 41 42 39 37 40 44 41 39 37 36 38 37 37 37 34 34
11 7 7 5 7 15 14 11 15 16 15 14 14 14 14 21 22 22 22 22 23 23 24 24 25 26 27 31 31 33 34 37 40 42 41 40 39 36 40 41 39 37 36 37 36 36 36 34 33

GFSSGP_sfc_30mbdewp_030.txt.gz
Dewpoint
65 62 64 62 51 51 44 45 49 44 42 45 44 42 43 46 43 36 63 68 70 71 72 73 73 71 71 71 71 71 70 70 70 70 70 70 69 70 71 71 72 71 71 71 71 71 71 71 70
65 60 61 58 47 44 42 47 45 44 44 45 44 43 43 43 60 60 61 67 70 71 73 73 73 71 71 71 70 70 70 69 69 68 68 69 68 69 69 69 70 70 70 71 71 71 71 71 70
58 60 53 52 49 42 41 45 45 44 45 44 44 44 42 43 59 60 61 69 70 70 72 72 73 72 71 70 70 69 68 68 67 66 66 66 66 67 67 68 68 68 68 69 71 72 71 72 71
51 55 53 44 43 44 44 43 45 45 46 45 43 42 45 52 57 60 62 67 68 69 72 73 74 73 73 71 69 68 67 66 65 65 65 64 65 65 65 65 67 66 66 67 68 70 71 72 71
54 52 46 43 38 38 39 44 44 40 41 45 44 41 44 54 57 61 60 66 66 69 71 74 73 72 72 71 70 68 66 65 65 64 64 64 63 64 64 63 64 66 66 66 66 67 68 72 70
43 45 36 32 33 35 31 29 38 36 37 42 43 42 45 55 60 59 58 65 67 70 72 73 73 73 72 71 70 68 67 65 64 64 63 63 62 62 63 62 62 63 64 65 65 67 69 70 70
41 40 34 34 31 28 30 29 31 27 31 33 42 40 46 57 60 60 58 67 69 70 71 72 73 73 73 72 70 68 67 66 64 64 64 63 62 62 62 62 61 61 61 62 64 66 67 67 68
45 41 35 31 23 19 29 24 27 23 28 35 37 37 43 53 58 60 60 65 69 71 71 73 73 72 72 71 70 69 68 66 64 64 64 63 62 60 61 61 60 60 60 61 60 62 66 67 66
41 20 21 21 20 20 26 22 25 27 22 23 32 31 38 46 57 59 58 60 66 68 70 72 72 71 71 70 69 69 67 66 65 64 63 62 60 60 60 59 59 58 58 57 57 57 57 58 60
34 24 13 24 24 21 23 24 25 24 23 22 21 26 44 49 56 57 57 56 63 66 68 71 70 70 70 69 69 69 67 66 65 64 63 61 59 59 58 58 57 56 55 54 52 49 48 50 48
33 20 25 25 25 28 25 24 27 23 19 21 20 25 26 47 53 56 56 56 57 62 66 70 70 70 69 68 68 68 67 65 63 62 61 60 57 58 58 56 54 49 48 44 43 42 37 41 42
25 28 28 27 28 28 25 26 24 24 21 25 26 27 27 42 48 53 54 55 54 54 60 67 69 69 68 67 68 67 65 64 62 61 60 59 56 56 54 52 51 46 46 41 39 34 34 31 33
24 24 26 28 28 27 25 21 22 22 24 27 27 27 27 29 34 37 36 41 50 53 53 58 68 68 67 65 67 66 65 63 62 59 58 56 54 54 52 48 46 41 40 40 36 33 32 26 24
26 27 26 27 25 25 22 22 24 21 25 22 24 28 32 32 33 33 34 35 36 40 43 51 64 66 66 64 65 64 63 62 60 57 55 53 52 52 50 45 44 43 40 36 33 31 29 26 26
26 20 19 20 24 22 25 20 21 23 22 18 19 31 31 30 31 31 32 33 34 37 39 39 50 61 64 63 64 62 61 60 57 54 52 49 48 48 46 45 42 41 37 34 33 31 30 28 28
21 20 15 17 14 24 20 16 18 22 22 21 29 29 29 27 27 28 30 32 33 33 35 37 39 41 53 58 60 61 58 57 55 50 48 46 45 44 41 42 40 39 36 34 32 30 30 29 27
18 13 12 11 13 22 22 19 23 26 24 26 26 25 25 26 26 26 27 31 33 32 32 34 38 38 39 48 53 55 55 52 50 45 43 42 43 43 40 39 38 37 36 34 32 30 30 29 29
14 11 11 13 16 24 22 23 23 26 25 22 21 22 24 24 25 27 28 28 31 33 32 31 35 39 39 39 40 46 51 50 45 41 40 38 41 41 39 39 38 37 36 35 33 31 32 31 30
18 17 19 20 23 22 22 22 20 19 19 19 19 21 23 24 25 27 27 28 29 31 33 31 34 37 39 39 39 40 41 48 48 45 41 40 39 41 39 39 38 38 36 35 34 33 31 32 33
22 20 20 23 25 23 21 20 20 18 19 19 20 21 23 23 24 26 27 28 29 29 31 33 33 36 37 40 41 41 40 43 46 46 44 41 39 40 40 40 39 39 38 35 34 33 33 32 33
21 19 22 22 25 24 22 22 20 20 14 13 19 22 24 23 24 25 26 27 28 28 29 30 32 34 36 38 39 38 40 41 41 41 44 45 41 40 40 40 40 39 39 36 35 34 33 31 33
19 24 24 25 24 16 24 15 23 18 9 9 9 14 22 23 24 25 25 25 27 27 27 29 30 31 36 36 36 38 37 39 40 40 43 44 45 42 41 40 40 39 39 38 37 36 34 34 31
22 26 25 25 24 24 23 23 23 12 8 9 9 10 11 22 23 24 24 25 27 26 24 27 29 30 35 33 32 32 33 40 40 40 39 41 44 45 41 41 40 40 40 39 38 37 36 34 33
22 19 17 24 24 16 19 20 22 13 9 10 11 10 10 12 23 24 24 24 26 25 23 25 28 29 32 31 30 29 28 32 39 40 40 40 40 45 45 41 40 40 40 39 39 38 37 36 34
19 20 5 11 14 9 20 15 16 10 11 11 11 12 11 11 22 23 22 22 24 23 23 24 27 27 28 28 28 28 29 33 40 39 40 39 39 39 43 44 41 40 40 40 40 39 38 37 36
19 20 10 -4 4 15 18 8 9 12 13 13 12 13 13 11 19 22 22 22 23 24 23 25 26 25 26 27 27 28 29 34 40 39 38 40 40 40 40 42 43 41 40 40 40 40 39 38 37
14 13 19 13 17 14 15 10 10 13 14 14 14 14 14 13 19 22 23 23 23 23 23 25 25 25 25 26 27 27 30 38 37 37 38 41 42 41 38 39 42 43 40 40 40 40 39 38 37
13 17 14 11 1 -1 5 10 11 11 14 15 13 14 14 14 20 22 23 23 23 24 24 25 25 25 26 27 27 28 31 34 35 37 38 41 43 40 39 38 39 43 41 40 40 40 39 38 38
8 7 10 10 9 2 1 2 13 14 15 14 14 15 16 16 22 23 23 24 24 24 24 25 25 26 26 27 28 30 31 32 34 35 36 42 41 41 40 39 37 41 42 39 39 39 39 38 37
9 8 9 5 3 14 14 10 15 16 15 15 15 15 15 20 23 24 24 25 25 25 25 25 26 26 27 28 30 30 30 32 33 32 36 42 41 41 41 41 40 40 42 40 38 38 38 37 36

GFSSGP_sfc_30mbdewp_033.txt.gz
Dewpoint
66 63 64 63 48 48 44 45 50 44 42 45 44 42 42 44 39 34 62 68 69 70 73 73 72 71 71 71 71 71 72 71 71 71 70 70 70 71 71 71 69 70 72 71 71 71 71 70 70
63 60 60 56 46 42 40 47 45 44 44 45 44 45 44 41 58 59 62 69 70 72 72 73 72 71 71 71 71 71 71 70 70 70 70 69 69 69 69 70 70 70 71 71 71 71 71 70 71
57 59 52 50 48 39 41 44 46 44 45 44 44 43 43 42 59 58 61 69 70 71 73 73 73 71 71 71 70 70 70 69 69 68 68 67 68 68 68 69 67 67 70 72 71 71 71 71 71
51 55 52 44 37 42 43 44 45 45 46 46 43 41 45 50 56 59 64 69 69 71 73 73 73 71 70 69 70 69 69 68 66 65 65 64 66 66 66 67 67 66 66 67 69 71 72 71 71
53 49 41 36 35 36 34 32 42 40 40 42 43 40 43 51 58 61 67 69 68 70 72 73 73 72 72 71 70 69 67 66 65 65 64 64 65 65 64 65 66 66 66 65 66 68 71 71 71
43 43 30 25 31 34 32 28 36 30 35 39 43 43 44 50 58 61 67 67 68 70 71 73 74 73 73 70 70 69 66 65 65 65 64 63 63 64 63 63 64 65 65 65 66 66 67 70 70
41 37 31 34 29 24 29 27 26 23 25 33 39 38 44 52 59 59 64 66 67 70 71 73 73 73 73 72 70 69 68 66 65 64 64 63 62 63 62 62 62 62 63 64 65 66 68 70 70
46 38 33 31 23 15 29 24 27 22 17 26 34 34 35 49 59 59 65 67 68 70 71 72 73 73 73 72 71 69 68 67 64 64 64 64 62 62 62 62 61 60 61 61 63 65 68 68 67
38 20 18 20 21 18 24 21 24 27 23 23 24 27 34 46 59 59 61 67 68 70 71 72 73 73 72 71 71 70 68 68 65 65 64 63 62 60 61 61 60 59 59 59 59 60 63 62 61
33 14 7 21 24 21 24 24 24 23 22 19 19 21 27 52 58 59 58 61 66 68 70 72 72 72 71 70 70 69 68 67 66 65 64 62 60 59 59 59 58 57 57 56 55 54 52 52 49
33 20 23 25 27 29 26 25 27 23 18 19 20 24 27 42 53 57 56 56 60 65 68 71 71 71 70 69 69 69 67 66 65 64 62 61 59 58 60 57 56 52 52 48 46 43 39 42 44
26 28 29 28 28 28 25 26 24 25 20 26 29 31 33 33 34 35 35 36 37 52 62 67 70 70 69 69 68 69 67 66 64 63 62 61 58 56 57 55 54 50 47 42 41 36 35 33 35
24 24 27 28 28 28 28 23 20 20 26 31 31 31 31 31 31 32 33 34 37 38 39 49 67 69 69 68 67 68 67 66 64 63 61 60 58 56 55 53 50 47 43 43 38 35 32 28 25
27 27 25 22 23 26 23 23 24 22 27 30 29 28 28 29 30 31 31 31 32 34 36 39 49 69 68 67 66 67 66 66 64 62 61 59 57 55 55 52 47 44 39 38 36 34 30 27 25
28 18 19 19 17 23 25 16 22 26 29 28 27 26 26 26 27 29 32 32 32 31 34 37 39 50 64 66 65 65 64 64 63 61 58 57 55 54 54 51 45 42 41 38 34 32 31 28 27
23 19 14 17 16 22 21 15 24 28 28 26 25 25 25 26 27 27 29 32 33 32 32 36 38 39 40 49 59 63 62 61 60 57 55 53 53 52 51 50 46 43 40 37 34 32 30 29 28
17 13 12 11 19 24 23 22 21 26 24 23 23 24 24 25 26 27 28 29 32 33 32 34 37 38 39 40 42 48 52 56 56 54 51 50 49 48 48 47 46 43 39 36 33 32 30 29 29
13 13 12 13 18 23 23 20 19 20 21 21 22 22 23 25 26 27 28 28 29 31 33 33 36 37 38 39 40 41 43 46 47 44 44 43 44 46 44 43 42 41 39 36 34 31 31 30 29
17 17 18 20 23 22 20 18 18 19 20 19 20 21 22 24 25 27 28 28 28 29 29 30 32 36 38 37 38 39 40 43 43 46 44 41 40 41 43 42 40 39 38 36 34 32 30 31 32
21 20 19 22 25 24 19 17 18 19 19 20 21 22 22 23 23 24 26 26 26 25 28 29 31 34 36 38 39 39 40 42 44 43 44 44 43 41 41 41 41 39 38 36 35 33 32 31 33
20 19 21 21 26 24 20 19 14 11 10 15 20 23 23 23 23 23 24 26 25 23 25 27 29 32 35 35 37 36 36 38 40 40 41 42 44 44 42 41 41 40 39 37 36 34 32 30 33
17 24 24 24 24 15 24 16 17 11 9 9 9 13 22 23 24 24 23 25 25 24 23 26 29 31 33 32 32 32 32 32 38 40 41 40 41 42 44 43 41 41 40 39 37 36 34 33 31
22 25 25 25 23 22 23 22 23 10 8 9 10 10 11 18 23 23 23 24 25 25 23 26 28 27 30 29 29 29 28 32 37 40 39 40 40 41 43 44 43 41 41 40 39 37 35 34 33
21 18 20 25 24 16 17 22 19 14 9 10 11 12 12 12 17 23 23 24 25 25 24 25 27 27 28 28 27 27 27 28 32 37 39 38 39 40 42 42 43 43 41 40 39 38 36 35 34
20 16 -2 3 13 6 20 19 16 9 10 11 12 13 13 13 12 22 22 22 23 24 24 24 27 25 25 25 26 27 27 29 33 39 39 38 38 40 41 41 41 42 43 42 41 39 38 36 35
19 19 8 -8 -3 10 19 9 10 11 12 13 14 14 14 15 14 21 22 23 22 22 23 24 25 25 25 26 26 27 28 29 35 37 37 36 38 40 42 41 39 40 41 43 42 41 40 38 37
13 12 19 12 15 11 12 14 10 12 13 15 15 14 15 15 15 21 23 23 23 23 23 24 24 26 26 26 26 27 28 29 33 33 35 35 38 41 43 40 39 39 40 42 43 41 40 39 38
13 16 12 10 -1 -3 2 5 8 11 13 15 15 15 15 16 17 21 23 24 24 25 25 25 25 26 26 27 27 28 29 31 31 32 35 37 38 40 42 41 40 40 39 40 43 42 41 40 39
6 8 12 11 9 2 0 -0 11 12 15 14 15 16 16 19 22 23 24 25 25 25 25 26 26 26 26 26 27 28 29 29 29 30 31 32 33 40 41 41 41 40 40 42 42 42 41 40 39
11 7 8 5 3 12 13 8 14 15 16 15 16 17 21 24 25 25 25 26 25 25 26 27 27 26 26 27 28 28 28 28 29 29 30 31 32 39 41 41 41 40 41 41 41 42 40 40 40